Location: Kouchibouguac National Park
(46.8081°N, 64.9088°W)
Time: 17:11:00
(UTC-03:00)

Daily predictions for brighter satellites

Satellite Brightness Start Highest point End
(mag) Time Altitude Azimuth Time Altitude Azimuth Time Altitude Azimuth
NOSS 3-1 (C) 3.5 20:45:17 10° SW 20:51:07 89° NW 20:57:45 10° NE
Resurs 1-3 3.7 20:50:04 10° SSE 20:54:28 87° WSW 20:58:54 10° NNW
SeaSat 1 2.7 20:51:51 10° NE 20:56:35 45° ESE 21:01:19 10° S
Cosmos 1812 4.1 20:54:13 10° NNW 20:57:55 42° W 21:01:35 10° SSW
Meteor 1-11 Rocket 4.3 20:53:23 10° SSE 20:58:42 38° E 21:03:58 10° NNE
BREEZE M DEB (TANK) 4.3 20:44:55 10° WSW 20:58:57 82° NNW 21:02:54 10° ENE
Cosmos 2360 4.2 20:54:24 10° SSW 21:00:03 70° ESE 21:05:44 10° NNE
Cosmos 1140 Rocket 3.5 20:57:51 10° NNW 21:03:07 78° ENE 21:08:22 10° SSE
USA 215 4.5 20:57:51 10° NE 21:03:54 41° NNW 21:09:57 10° W
Spot 2 Rocket 3.7 20:58:52 10° S 21:03:59 78° WSW 21:09:06 10° NNW
Iridium 30 4.5 21:01:56 10° S 21:05:06 89° W 21:08:57 10° N
S3M 4.1 21:01:19 10° N 21:07:33 68° E 21:13:50 10° SSE
Cosmos 1954 Rocket 4.2 21:03:45 10° NNW 21:09:06 82° WSW 21:14:25 10° SSE
Meteor 2-11 Rocket 4.5 21:03:52 10° N 21:10:00 89° W 21:16:05 10° S
Cosmos 1553 Rocket 4.0 21:04:30 10° N 21:10:43 76° E 21:16:49 10° SSE
SPOT 5 4.5 21:07:41 10° ESE 21:11:03 19° ENE 21:14:17 10° NNE
Cosmos 614 Rocket 3.9 21:06:12 10° NNW 21:11:19 79° ENE 21:16:28 10° SSE
Cosmos 1602 3.7 21:07:43 10° S 21:11:30 59° E 21:15:17 10° NNE
Lacrosse 5 3.3 21:12:07 10° SSE 21:15:01 15° ESE 21:17:55 10° E
Cosmos 1607 4.4 21:12:36 10° NNW 21:18:56 55° NE 21:24:43 13° ESE
Cosmos 2266 Rocket 4.3 21:15:21 10° SSE 21:20:59 43° E 21:26:38 10° NNE
Cosmos 1741 Rocket 4.1 21:17:36 10° NNW 21:22:49 64° ENE 21:27:51 11° SSE
Resurs 01 Rocket 2.9 21:18:49 10° S 21:23:01 41° W 21:27:16 10° NNW
Cosmos 44 3.9 21:19:00 10° NW 21:23:15 47° WSW 21:27:36 10° SSE
H-2A R/B 3.4 21:20:17 11° ESE 21:23:44 22° ENE 21:27:28 10° NNE
GENESIS II 4.2 21:20:29 10° NW 21:24:27 86° SW 21:27:53 13° SE
Meteor 1-29 4.0 21:21:32 10° NE 21:24:28 26° E 21:26:56 12° SSE
Cosmos 2263 Rocket 2.4 21:19:34 10° NNW 21:25:13 59° ENE 21:30:14 13° SE
Okean 1 Rocket 3.9 21:21:44 10° SSE 21:25:31 30° E 21:29:21 10° NNE
Cosmos 2322 Rocket 2.4 21:21:16 10° S 21:26:43 49° ESE 21:32:11 10° NE
ERBS 2.2 21:23:19 10° SW 21:26:47 78° SE 21:30:16 10° NE
Cosmos 1939 Rocket 2.9 21:22:56 10° S 21:26:56 79° WSW 21:30:53 10° NNW
ARGOS 4.0 21:22:56 13° SE 21:27:11 34° ENE 21:31:59 10° N
Meteor 1-19 Rocket 4.4 21:23:00 10° NNW 21:28:56 85° W 21:34:46 10° S
Cosmos 921 Rocket 4.0 21:25:56 10° SW 21:29:59 48° WNW 21:34:04 10° N
ERS-1 Rocket 3.4 21:26:15 12° SE 21:30:38 46° ENE 21:35:27 10° N
ATLAS 3B R/B 3.3 21:24:42 10° NNW 21:31:15 44° NE 21:36:37 14° ESE
Cosmos 1300 Rocket 3.7 21:28:14 10° S 21:32:24 51° E 21:36:36 10° NNE
Envisat 3.7 21:28:04 10° S 21:33:02 56° W 21:38:04 10° NNW
Cosmos 1844 Rocket 4.3 21:28:49 10° N 21:33:05 21° NE 21:37:09 11° E
Cosmos 1536 3.0 21:32:12 10° S 21:36:11 54° E 21:40:10 10° NNE
Helios 1B rocket 2.6 21:32:13 10° NNE 21:36:14 50° E 21:40:13 10° S
SL-16 R/B 2.2 21:31:05 10° S 21:36:37 58° ESE 21:42:11 10° NNE
Lacrosse 5 rocket 2.7 21:33:41 10° WNW 21:36:53 28° SW 21:40:08 10° S
Tiangong 1 1.7 21:36:02 10° WSW 21:38:34 32° S 21:39:34 24° SE
NOSS 2-3 (D) 4.3 21:34:27 10° S 21:38:48 39° ESE 21:43:50 10° NE
Cosmos 2151 Rocket 3.7 21:34:41 10° SSW 21:39:04 77° W 21:43:30 10° N
Cosmos 1025 Rocket 3.6 21:35:55 10° N 21:39:55 38° ENE 21:42:28 19° SE
Cosmos 220 Rocket 4.2 21:41:42 10° NNW 21:45:56 54° ENE 21:48:35 21° SE
CZ-4B DEB 2.4 21:46:34 21° SSE 21:48:20 85° ENE 21:51:13 10° NNW
EXPRESS MD2 3.1 21:48:05 10° SW 21:50:58 67° SSE 21:56:21 10° ENE
COSMOS 2428 4.3 21:53:07 15° E 21:53:07 15° E 21:56:02 10° ENE
USA 245 4.3 21:50:01 20° SE 21:53:20 46° ENE 21:57:33 10° N
H-2A R/B 4.4 21:56:49 10° ENE 21:57:31 10° NE 21:58:13 10° NE
Cosmos 1110 Rocket 4.4 21:57:18 16° SSE 22:01:01 39° ESE 22:05:49 10° NE
YAOGAN 6 3.8 21:57:51 10° S 22:01:13 40° W 22:04:35 10° NNW
Cosmos 2360 Rocket 2.7 21:56:27 10° S 22:01:30 38° ESE 22:06:40 10° NE
Meteor 1-5 Rocket 4.0 21:57:10 10° S 22:02:29 73° E 22:07:46 10° NNE
Cosmos 1980 Rocket 3.8 21:57:36 10° WSW 22:02:47 37° NW 22:07:59 10° NNE
Cosmos 839 Rocket 4.4 21:57:00 10° SW 22:03:09 68° NW 22:09:34 10° NNE
MetOp-B 4.1 21:59:24 19° SSE 22:03:20 77° ENE 22:08:42 10° NNW
Abrixas rocket 2.5 22:00:26 10° W 22:03:42 64° N 22:05:32 24° ENE
ATLAS 2AS CENTAUR R/B 3.1 21:57:46 10° SSW 22:05:13 55° ESE 22:13:06 10° NE
BREEZE M DEB (TANK) 3.7 21:59:50 10° SSW 22:05:28 25° SSE 22:05:34 25° SSE
Cosmos 1500 4.1 22:05:22 29° ESE 22:05:47 29° E 22:09:12 10° NNE
Meteor 2-4 Rocket 4.3 22:02:51 10° NNW 22:08:15 57° W 22:13:46 10° S
Terra 3.2 22:06:49 20° E 22:08:26 24° ENE 22:12:13 10° N
SL-08 RB Rocket 3.7 22:13:23 30° SE 22:15:32 66° ENE 22:20:04 10° N
NOSS 2-3 (E) 3.8 22:11:02 10° SSW 22:15:46 78° SE 22:21:25 10° NE
Helios 1A 4.4 22:12:03 10° SSW 22:15:58 36° W 22:19:56 10° NNW
Cosmos 1892 Rocket 4.1 22:11:54 10° N 22:16:09 42° ENE 22:17:22 34° ESE
Okean 2 3.3 22:12:15 10° N 22:16:23 79° E 22:18:06 34° SSE
Atlas Centaur 2 4.0 22:11:42 10° SW 22:16:47 19° SSW 22:18:37 17° S
Cosmos 1331 Rocket 4.2 22:14:00 22° SSE 22:17:04 48° ESE 22:22:05 10° NNE
SL-8 R/B 3.7 22:12:46 10° WNW 22:17:36 83° NNE 22:20:04 29° E
CENTAUR R/B 4.5 22:16:24 10° NW 22:22:39 28° NNE 22:29:27 10° E
SPOT 1/Viking Rocket 3.6 22:22:13 32° SE 22:24:36 64° ENE 22:29:47 10° N
Cosmos 1238 Rocket 4.1 22:24:30 10° N 22:31:16 70° E 22:34:38 31° SSE
BREEZE-M DEB (TANK) 2.9 22:31:25 10° WSW 22:32:41 26° W 22:32:41 26° W
SeaSat 1 4.3 22:29:38 10° NNE 22:33:58 32° NW 22:38:18 10° WSW
Cosmos 1544 Rocket 4.0 22:34:34 41° ESE 22:34:53 42° E 22:39:07 10° NNE
Cosmos 1066 Rocket 4.2 22:30:46 10° N 22:36:08 64° ENE 22:38:05 39° SE
Nadezhda 1 Rocket 4.5 22:30:39 10° N 22:36:41 45° ENE 22:38:52 34° ESE
Cosmos 1244 Rocket 4.4 22:35:01 22° S 22:39:08 79° E 22:45:17 10° N
USA 215 4.5 22:40:08 10° ENE 22:46:02 38° N 22:51:57 10° WNW
Meteor 1-12 Rocket 4.3 22:45:09 40° SSE 22:46:56 58° E 22:52:28 10° NNE
Cosmos 1455 Rocket 3.3 22:47:37 49° E 22:47:43 50° E 22:52:02 10° NNE
SPOT 5 3.2 22:46:38 33° S 22:48:43 62° WSW 22:53:24 10° NNW
NOSS 2-3 (C) 4.4 22:44:42 10° SW 22:49:29 64° NW 22:55:16 10° NE
Cosmos 1975 2.6 22:50:50 71° ESE 22:50:55 72° E 22:54:55 10° NNE
Cosmos 1666 4.3 22:52:48 23° NE 22:52:48 23° NE 22:54:52 10° NNE
Lacrosse 5 1.7 22:52:11 10° SW 22:57:15 77° SE 23:02:20 10° NE
NOSS 3-2 (A) 4.1 22:52:07 10° NW 22:59:28 69° NE 23:03:01 36° ESE
USA 238 DEB 3.8 22:52:32 10° NW 22:59:38 78° SW 23:02:25 41° SSE
USA 238 3.8 22:52:38 10° NW 22:59:44 78° SW 23:02:31 41° SSE
Cosmos 1743 3.6 23:01:14 37° NE 23:01:14 37° NE 23:03:55 10° NNE
SL-08 R/B 4.4 22:59:12 37° S 23:01:52 78° E 23:08:13 10° N
H-2A R/B 2.4 23:00:55 36° SSW 23:02:47 58° W 23:07:43 10° NNW
Cosmos 2278 Rocket 3.1 23:01:03 10° NNW 23:06:19 37° NE 23:07:46 32° E
ARGOS 4.3 23:04:28 21° SSW 23:07:22 38° W 23:12:22 10° NNW
Cosmos 2237 4.1 23:06:23 38° SSW 23:08:42 79° ESE 23:14:25 10° NNE
Cosmos 2263 Rocket 4.0 23:04:16 10° NW 23:08:43 24° WSW 23:11:56 15° SW
ARGOS Delta rocket 4.4 23:05:33 10° NNE 23:09:10 40° ENE 23:09:10 40° ENE
Cosmos 2322 Rocket 4.0 23:05:54 10° WSW 23:10:59 32° NW 23:16:05 10° NNE
IGS 5A 3.4 23:11:18 81° NE 23:11:18 81° NE 23:15:25 10° NNW
Cosmos 1844 Rocket 2.6 23:12:01 10° NNW 23:17:44 84° WSW 23:18:48 60° SSE
CARTOSAT-1 3.5 23:19:24 79° WSW 23:19:27 79° WSW 23:23:48 10° NNW
SL-16 R/B 4.2 23:16:16 10° WSW 23:21:05 28° NW 23:25:58 10° N
ATLAS 3B R/B 3.1 23:15:36 10° NW 23:22:03 50° WSW 23:23:52 39° SSW
Cosmos 405 4.3 23:26:02 38° WNW 23:26:02 38° WNW 23:29:21 10° N
Cosmos 1602 Rocket 3.7 23:24:21 10° N 23:28:14 68° NNE 23:28:14 68° NNE
Cosmos 2322 4.2 23:24:05 15° SW 23:28:46 60° WNW 23:34:25 10° NNE
BREEZE-M DEB 3.7 23:24:16 10° WNW 23:29:11 45° W 23:29:11 45° W
Landsat 7 4.5 23:29:53 43° SW 23:30:34 46° W 23:35:11 10° NNW
Cosmos 2219 Rocket 2.4 23:32:43 53° E 23:32:43 53° E 23:37:42 10° NE
H-2A R/B 2.2 23:33:11 67° NNE 23:33:11 67° NNE 23:37:06 10° NNW
Cosmos 1745 Rocket 4.0 23:30:57 46° SSW 23:32:54 77° W 23:39:06 10° N
Cosmos 1302 Rocket 4.2 23:32:54 43° SW 23:34:34 67° WNW 23:39:51 10° NNE
COSMOS 2428 2.6 23:35:04 57° SSW 23:36:20 88° WNW 23:42:07 10° NNE
NOSS 3-2 (C) 3.9 23:29:07 10° NW 23:36:35 83° NE 23:39:02 50° SE
SL-16 R/B 4.4 23:39:45 12° ENE 23:39:45 12° ENE 23:40:30 10° ENE
CZ-2C R/B 4.1 23:34:35 10° NE 23:37:50 24° ENE 23:37:50 24° ENE
Timation 1 Rocket 4.3 23:35:49 10° NNW 23:41:50 71° ENE 23:42:34 64° ESE
Cosmos 1437 Rocket 3.7 23:45:34 49° NNW 23:45:34 49° NNW 23:48:47 10° N
Cosmos 2360 Rocket 3.5 23:40:15 10° WSW 23:45:30 39° NW 23:50:46 10° NNE
Terra 2.4 23:45:43 46° WSW 23:45:54 46° W 23:50:31 10° NNW
Cosmos 1844 3.7 23:40:39 10° NNW 23:46:16 66° WSW 23:46:42 63° SW
deb Chang Zheng 4 4.5 23:42:33 10° NNE 23:45:37 42° NE 23:45:37 42° NE
Cosmos 2333 Rocket 2.4 23:50:49 56° ENE 23:50:49 56° ENE 23:55:41 10° NNE
Cosmos 968 Rocket 3.8 23:47:41 10° NNW 23:52:31 54° NE 23:52:31 54° NE
Cosmos 1626 Rocket 4.3 23:49:34 10° NNW 23:53:12 48° WNW 23:53:12 48° WNW
